This is the latest recevied weather packets stored in our database for station/object KD4IZ-13. If no packets are shown the sender has not sent any weather packets the latest 1 day(s).
| Time | Temp. | Humidity | Pressure | Rain* | Wind** | Luminosity | Snow |
|---|---|---|---|---|---|---|---|
| 1778060705 | 18.33° C | 76% | 1010.7 hPa | 0 mm | 1.34 m/s, 155° | 0 W/m² | - |
| 1778060403 | 18.33° C | 76% | 1010.3 hPa | 0 mm | 2.24 m/s, 227° | 0 W/m² | - |
| 1778060101 | 18.33° C | 76% | 1010.4 hPa | 0 mm | 1.34 m/s, 186° | 0 W/m² | - |
| 1778059798 | 18.33° C | 76% | 1010.5 hPa | 0 mm | 2.24 m/s, 178° | 0 W/m² | - |
| 1778059496 | 18.33° C | 76% | 1010.3 hPa | 0 mm | 1.79 m/s, 245° | 0 W/m² | - |
| 1778059192 | 18.33° C | 75% | 1010.5 hPa | 0 mm | 2.24 m/s, 166° | 0 W/m² | - |
| 1778058891 | 18.33° C | 75% | 1010.4 hPa | 0 mm | 2.68 m/s, 186° | 0 W/m² | - |
| 1778058587 | 18.33° C | 75% | 1010.5 hPa | 0 mm | 0.45 m/s, 199° | 0 W/m² | - |
| 1778058285 | 18.89° C | 75% | 1010.6 hPa | 0 mm | 2.68 m/s, 266° | 0 W/m² | - |
| 1778057981 | 18.89° C | 74% | 1010.6 hPa | 0 mm | 1.34 m/s, 175° | 0 W/m² | - |
| 1778057678 | 18.89° C | 74% | 1010.6 hPa | 0 mm | 0.45 m/s, 287° | 0 W/m² | - |
| 1778057375 | 18.89° C | 73% | 1010.5 hPa | 0 mm | 1.34 m/s, 233° | 0 W/m² | - |
| 1778057072 | 18.89° C | 73% | 1010.9 hPa | 0 mm | 1.79 m/s, 183° | 0 W/m² | - |
| 1778056768 | 18.89° C | 73% | 1010.8 hPa | 0 mm | 2.24 m/s, 266° | 0 W/m² | - |
| 1778056465 | 18.89° C | 73% | 1010.8 hPa | 0 mm | 2.68 m/s, 170° | 0 W/m² | - |
| 1778056162 | 18.89° C | 72% | 1010.4 hPa | 0 mm | 1.34 m/s, 220° | 0 W/m² | - |
| 1778055860 | 19.44° C | 71% | 1010.7 hPa | 0 mm | 0.45 m/s, 132° | 0 W/m² | - |
| 1778055555 | 19.44° C | 71% | 1010.7 hPa | 0 mm | 1.79 m/s, 250° | 0 W/m² | - |
| 1778055254 | 19.44° C | 70% | 1010.6 hPa | 0 mm | 1.34 m/s, 260° | 0 W/m² | - |
| 1778054950 | 19.44° C | 70% | 1010.8 hPa | 0 mm | 2.24 m/s, 236° | 0 W/m² | - |
| 1778054647 | 20° C | 70% | 1010.7 hPa | 0 mm | 0.89 m/s, 350° | 0 W/m² | - |
| 1778054345 | 20° C | 69% | 1010.6 hPa | 0 mm | 3.13 m/s, 220° | 0 W/m² | - |
| 1778054042 | 20° C | 69% | 1010.7 hPa | 0 mm | 3.13 m/s, 223° | 0 W/m² | - |
| 1778053739 | 20° C | 68% | 1010.6 hPa | 0 mm | 3.58 m/s, 231° | 0 W/m² | - |
| 1778053436 | 20° C | 68% | 1010.8 hPa | 0 mm | 2.24 m/s, 241° | 0 W/m² | - |
* Rain latest hour (hover to see other rain measurements)
** Current wind speed in m/s (hover to see current wind gust speed)